Погода в Кельменцах

Украина / Черновицкая область     48°27′48″N   26°49′45″E
В апреле 2022 года жителям России запретили посещать сайт meteo.paraplan.net по решению Генеральной прокуратуры. Аудитория сайта уменьшилась в 10 раз. Владельцы сайта не видят смысла в поддержке погодного сервера в таких условиях. Сайт будет закрыт в октябре.
темп.,
°C
ветер,
м/с
пор.,
м/с
влажн.,
%
обл.,
%
осадки,
мм/ч
давл.,
гПа
погр.,
м
25 сентября, вс
вс2500:00+8зюз117046 0.0 101911
03:00+7ююз11749 0.0 101910
06:00+7ююз117583 0.0 101910
09:00+10ю3467100 0.0 1018162
12:00+14ю3354100 0.0 1018509
15:00+17ю33469 0.0 10161066
18:00+15ююв2359100 0.0 101575
21:00+14ююв3458100 0.0 101587
26 сентября, пн
пн2600:00+13ю2361100 0.0 101439
03:00+13ююв2260100 0.0 101323
06:00+11юв2264100 0.0 101211
09:00+13юв246297 0.0 1011135
12:00+18ююз3351100 0.0 1010529
15:00+14ссв5671100 0.1 1010208
18:00+15ссв3469100 0.0 1009146
21:00+13ссв3679100 0.2 1008144
27 сентября, вт
вт2700:00+12ссв2379100 0.1 100773
03:00+12всв2286100 0.9 100576
06:00+11св2495100 2.7 1003140
09:00+12всв1494100 3.8 1002175
12:00+12ссз1194100 0.8 100297
15:00+14зсз3488100 0.9 1001448
18:00+14зсз4685100 0.0 1001552
21:00+11сз2293100 0.1 100128
28 сентября, ср
ср2800:00+10зсз22945 0.0 100224
03:00+10зсз11935 0.0 100210
06:00+9зюз019383 0.0 100310
09:00+12юз2288100 0.0 1003129
12:00+14зсз238197 0.0 1004377
15:00+14сз228061 0.0 1004216
18:00+15вюв00765 0.0 100521
21:00+12вюв22864 0.0 100612
29 сентября, чт
чт2900:00+11юв228622 0.0 100715
03:00+11юв2289100 0.0 100720
06:00+11вюв2290100 0.0 100722
09:00+13юв2483100 0.0 1007156
12:00+18ююв4662100 0.0 1006527
15:00+21ю5652100 0.0 1006878
18:00+18ююв3767100 0.0 1006160
21:00+17ю41169100 0.0 1008262